Location: Central Falls
(41.8900°N, 71.3929°W)
Time: 12:27:40
(UTC+00:00)

A-11 Canister half - Pass Details

Date: 08 December 2023
Orbit: 1526 x 1682 km, 47.3° (Epoch: 20 February)

Event Time Altitude Azimuth Distance (km) Brightness Sun altitude
Rises 03:27:29 0° 290° (WNW) 4,931 12.0 -65.9°
Enters shadow 03:30:08 - 291° (WNW) 4,110 11.4 -66.2°
Reaches altitude 10° 03:30:42 10° 292° (WNW) 3,934 - -66.3°
Maximum altitude 03:40:50 77° 18° (NNE) 1,686 - -67.5°
Drops below altitude 10° 03:50:40 10° 105° (ESE) 3,823 - -68.5°
Sets 03:53:44 0° 107° (ESE) 4,786 - -68.7°
